Location: Passau
(48.5830°N, 13.4830°E)
Time: 05:26:14
(UTC+02:00)

Vanguard 1 - Pass Details

Date: 27 July 2021
Orbit: 652 x 3831 km, 34.3° (Epoch: 16 September)

Event Time Altitude Azimuth Distance (km) Brightness Sun altitude
Rises 20:27:36 0° 262° (W) 5,962 15.1 2.5°
Reaches altitude 10° 20:36:49 10° 231° (SW) 5,824 14.3 1.1°
Maximum altitude 20:40:20 11° 220° (SW) 6,021 14.2 0.6°
Drops below altitude 10° 20:44:07 10° 209° (SSW) 6,345 14.2 0.1°
Sets 20:57:00 0° 180° (S) 7,897 14.4 -1.8°
